FENGYUN 1C DEB

Satellite information

Favourite Embed

Satellite Type and Status

DEBRISIN ORBIT

Key statistics

Satellite FENGYUN 1C DEB at a glance.

Uptime

9556

Days in orbit

Revolutions

≈ 14.1

Per day

Orbit

SSO

Sun Synchronous Orbit

Inclination

98.3

Latest

Satellite identification and parameters

Extended collection of information and parameters for FENGYUN 1C DEB.

Object identification

Identified? True

Debris? True

Object name: FENGYUN 1C DEB

International designator: 1999-025CZH

Object number (NORAD): 32364

Object ID (CCSDS): 32364

Country: PEOPLES REPUBLIC OF CHINA (PRC)

Current information (Y/N): Y

RCS size: SMALL

Orbital parameters

Period: 101.907 minutes

Inclination: 98.331 deg

SMA: 7227.082 km

Apoapsis: 943.75 km

Periapsis: 754.144 km

RAAN: 37.6812 deg

Eccentricy: 0.0131177

Argument of periapsis: 282.6556 deg

Mean anomaly: 75.9979 deg

Mean motion: 14.13052516 rev/day

Mean motion (dot): 0.00002293 rev/day2

B* drag term: 0.001152 1/REarth

Two-line elements (TLE)

Creation date: July 6, 2025, 10:26 p.m.

Reference frame: TEME

Reference center: EARTH

Epoch: July 6, 2025, 7:24 p.m. UTC

TLE line 0: 0 FENGYUN 1C DEB

TLE line 1: 1 32364U 99025CZH 25187.80847016 .00002293 00000-0 11520-2 0 9997

TLE line 2: 2 32364 98.3310 37.6812 0131177 282.6556 75.9979 14.13052516905351

Live tracking on map

Real-time ground track for satellite FENGYUN 1C DEB.

In-orbit conjunctions

A list of the most updated potential collisions computed for object FENGYUN 1C DEB.

Target Orbit TCA Probability of collision Miss distance Type
DMSP 5D-2 F10 (USA 68) SSO 2024-10-16 20:12:24 0.0001095066 720.0 (m) PAYLOAD
COSMOS 1759 LEO 2024-09-04 12:07:11 0.0001039449 901.0 (m) PAYLOAD
FENGYUN 1C SSO 2024-06-20 10:00:27 0.0003641264 98.0 (m) PAYLOAD

Associated space launch

Chinese polar orbiting meteorological satellite

FENGYUN 1C DEB was lifted into orbit during the mission ‘Long March 4B | Feng Yun 1C’, on board a Long March 4B space rocket.

The launch took place on May 10, 1999, 1:33 a.m. from Launch Complex 7.

For more information about the launch, click the button.

Launch to space Long March 4B | Feng Yun 1C
Long March 4B | Feng Yun 1C

Agency: N/A

Status: Launch Successful

Launch date: May 10, 1999, 1:33 a.m. UTC

Rocket: Long March 4B

Launch pad: Launch Complex 7

Location: Taiyuan Satellite Launch Center, People's Republic of China

...

Latest news about this satellite

There are no fresh news available about this satellite. Check back as we update our databases every day.


Newsletter sign-up

Weekly statistics, charts and insights to help you stay on top of the space industry.